Disclaimer

Please do not use the information listed here in-flight or in-navigation, as they are not provided to us by the airports but are provided by volunteers, so they might be outdated.

Search


Regions


Airport information page

Radio informations:
Tower (TWR) - 118.2 MHz
Automatic Terminal Information Service (ATIS) - 127.5 MHz
Approach (APP) - 118.2 MHz

Airport informations:
Latitude: 39° 11' 19.70" N
Longitude: 045° 27' 30.39" E
Elevation: 2863 feet - 873 meters
Operating hours: 24 hour operations
Operating agency: Military-civil joint use airport
Timezone: UTC+4(+5DT) - Last Sunday in March to last Sunday in October
Fuel: N/A

Runway information:
14R/32L - 10826 x 148 feet< - >3300 x 45 meters
14L/32R - 10826 x 138 feet< - >3300 x 42 meters

Recent METARs:
UBBN 171030Z 26008KT 9999 SCT050 BKN083 07/M00 Q1001 R14R/CLRD// NOSIG RMK MT OP QFE676
UBBN 171100Z 28006KT 9999 BKN040 OVC083 08/M02 Q1001 R14R/CLRD// NOSIG RMK MT OP QFE677
UBBN 171130Z 23006KT 9999 BKN040CB OVC083 08/M01 Q1001 R14R/CLRD// NOSIG RMK MT OP QFE677

Airport on the map: